,,Stat6,,Stat2,,Stat8,,Stat9,,Stat10,,Wind1,,Wind1,
time,status,PA1M_AVG,status,PR1M_SUM,status,RH1M_AVG,status,SR1M_AVG,status,TA1M_AVG,status,W1dAve1m,status,W1sAve1m,
2007-09-08, 07:00:01,VALID,917.731,VALID,0,VALID,100,VALID,30.107,VALID,18.4965,VALID,50,VALID,0.223264,
2007-09-08, 07:01:00,VALID,917.746,VALID,0,VALID,100,VALID,28.8504,VALID,18.5034,VALID,98,VALID,0.464558,
2007-09-08, 07:02:00,VALID,917.756,VALID,0,VALID,100,VALID,27.1523,VALID,18.5328,VALID,82,VALID,0.614955,
2007-09-08, 07:03:00,VALID,917.775,VALID,0,VALID,100,VALID,31.3636,VALID,18.5388,VALID,33,VALID,0.941602,
2007-09-08, 07:04:00,VALID,917.782,VALID,0,VALID,100,VALID,30.4806,VALID,18.5914,VALID,37,VALID,1.09811,
2007-09-08, 07:05:00,VALID,917.802,VALID,0,VALID,100,VALID,28.5618,VALID,18.6014,VALID,33,VALID,1.17844,
2007-09-08, 07:06:00,VALID,917.809,VALID,0,VALID,100,VALID,29.0033,VALID,18.6111,VALID,18,VALID,1.13467,
2007-09-08, 07:07:00,VALID,917.839,VALID,0,VALID,100,VALID,30.0221,VALID,18.6186,VALID,38,VALID,0.653472,
2007-09-08, 07:08:00,VALID,917.835,VALID,0,VALID,100,VALID,23.6883,VALID,18.6156,VALID,33,VALID,1,
2007-09-08, 07:09:00,VALID,917.84,VALID,0,VALID,100,VALID,5.43387,VALID,18.6091,VALID,293,VALID,0.526811,
2007-09-08, 07:10:00,VALID,917.847,VALID,0,VALID,100,VALID,5.3999,VALID,18.5991,VALID,151,VALID,0.45633,
2007-09-08, 07:11:00,VALID,917.856,VALID,0,VALID,100,VALID,5.92631,VALID,18.5727,VALID,47,VALID,0.413889,
2007-09-08, 07:12:00,VALID,917.878,VALID,0,VALID,100,VALID,24.5713,VALID,18.5572,VALID,347,VALID,0.399554,
2007-09-08, 07:13:00,VALID,917.878,VALID,0,VALID,100,VALID,24.7581,VALID,18.5727,VALID,15,VALID,0.665838,
2007-09-08, 07:14:00,VALID,917.887,VALID,0,VALID,100,VALID,24.4015,VALID,18.5926,VALID,28,VALID,0.662427,
2007-09-08, 07:15:00,VALID,917.902,VALID,0,VALID,100,VALID,22.6864,VALID,18.5894,VALID,29,VALID,1.06995,
2007-09-08, 07:16:00,VALID,917.915,VALID,0.2,VALID,100,VALID,21.8883,VALID,18.5959,VALID,33,VALID,1.38652,
2007-09-08, 07:17:00,VALID,917.937,VALID,0,VALID,100,VALID,23.8581,VALID,18.5949,VALID,59,VALID,0.605183,
2007-09-08, 07:18:00,VALID,917.949,VALID,0,VALID,100,VALID,24.6562,VALID,18.6123,VALID,63,VALID,0.635099,
2007-09-08, 07:19:00,VALID,917.982,VALID,0,VALID,100,VALID,23.5524,VALID,18.6054,VALID,28,VALID,0.442649,
2007-09-08, 07:20:00,VALID,918.004,VALID,0,VALID,100,VALID,24.0958,VALID,18.6253,VALID,27,VALID,0.690589,
2007-09-08, 07:21:00,VALID,918.016,VALID,0,VALID,100,VALID,26.9146,VALID,18.6181,VALID,32,VALID,1.49829,
2007-09-08, 07:22:00,VALID,918.029,VALID,0.2,VALID,100,VALID,29.5466,VALID,18.6329,VALID,77,VALID,1.01599,
2007-09-08, 07:23:00,VALID,918.035,VALID,0,VALID,100,VALID,29.7165,VALID,18.6338,VALID,89,VALID,0.852896,
2007-09-08, 07:24:00,VALID,918.082,VALID,0,VALID,100,VALID,29.6146,VALID,18.594,VALID,73,VALID,0.647347,
2007-09-08, 07:25:00,VALID,918.06,VALID,0,VALID,100,VALID,26.9995,VALID,18.5949,VALID,204,VALID,0.667515,
2007-09-08, 07:26:00,VALID,918.093,VALID,0,VALID,100,VALID,24.6052,VALID,18.5717,VALID,36,VALID,1.40473,
2007-09-08, 07:27:00,VALID,918.102,VALID,0,VALID,100,VALID,24.4184,VALID,18.5884,VALID,24,VALID,1.72771,
2007-09-08, 07:28:00,VALID,918.115,VALID,0,VALID,100,VALID,25.6241,VALID,18.578,VALID,4,VALID,0.601042,
2007-09-08, 07:29:00,VALID,918.137,VALID,0,VALID,100,VALID,26.8127,VALID,18.6047,VALID,193,VALID,0.929324,
2007-09-08, 07:30:00,VALID,918.157,VALID,0,VALID,100,VALID,25.9637,VALID,18.5488,VALID,189,VALID,0.759588,
2007-09-08, 07:31:00,VALID,918.156,VALID,0.2,VALID,100,VALID,26.4731,VALID,18.5363,VALID,43,VALID,1.04861,
2007-09-08, 07:32:00,VALID,918.165,VALID,0,VALID,100,VALID,28.9184,VALID,18.556,VALID,34,VALID,1.98647,
2007-09-08, 07:33:00,VALID,918.197,VALID,0,VALID,100,VALID,29.6825,VALID,18.5525,VALID,66,VALID,1.23735,
2007-09-08, 07:34:00,VALID,918.226,VALID,0,VALID,100,VALID,31.2787,VALID,18.5683,VALID,177,VALID,0.862827,
2007-09-08, 07:35:00,VALID,918.24,VALID,0,VALID,100,VALID,33.2654,VALID,18.5653,VALID,33,VALID,1.00761,
2007-09-08, 07:36:00,VALID,918.263,VALID,0,VALID,100,VALID,31.9919,VALID,18.5488,VALID,357,VALID,0.939024,
2007-09-08, 07:37:00,VALID,918.264,VALID,0,VALID,100,VALID,31.024,VALID,18.5609,VALID,52,VALID,1.57412,
2007-09-08, 07:38:00,VALID,918.273,VALID,0,VALID,100,VALID,31.5164,VALID,18.5576,VALID,46,VALID,1.07592,
2007-09-08, 07:39:00,VALID,918.297,VALID,0,VALID,100,VALID,32.6202,VALID,18.5637,VALID,43,VALID,0.818824,
2007-09-08, 07:40:00,VALID,918.323,VALID,0,VALID,100,VALID,32.0938,VALID,18.5803,VALID,31,VALID,0.96317,
2007-09-08, 07:41:00,VALID,918.342,VALID,0,VALID,100,VALID,35.1333,VALID,18.6058,VALID,26,VALID,0.869565,
2007-09-08, 07:42:00,VALID,918.363,VALID,0,VALID,100,VALID,35.3201,VALID,18.6225,VALID,38,VALID,1.55,
2007-09-08, 07:43:00,VALID,918.357,VALID,0,VALID,100,VALID,39.1578,VALID,18.6353,VALID,45,VALID,1.11626,
2007-09-08, 07:44:00,VALID,918.357,VALID,0,VALID,100,VALID,38.7163,VALID,18.6061,VALID,44,VALID,1.65861,
2007-09-08, 07:45:00,VALID,918.393,VALID,0,VALID,100,VALID,41.8917,VALID,18.6028,VALID,40,VALID,1.11852,
2007-09-08, 07:46:00,VALID,918.391,VALID,0,VALID,100,VALID,37.8503,VALID,18.5998,VALID,53,VALID,2.03445,
2007-09-08, 07:47:00,VALID,918.365,VALID,0,VALID,100,VALID,36.7126,VALID,18.5474,VALID,352,VALID,2.21761,
2007-09-08, 07:48:00,VALID,918.419,VALID,0.2,VALID,100,VALID,38.6314,VALID,18.4986,VALID,305,VALID,1.36648,
2007-09-08, 07:49:00,VALID,918.442,VALID,0,VALID,100,VALID,37.3239,VALID,18.512,VALID,130,VALID,1.51758,
2007-09-08, 07:50:00,VALID,918.46,VALID,0,VALID,100,VALID,33.639,VALID,18.5345,VALID,27,VALID,2.17778,
2007-09-08, 07:51:00,VALID,918.483,VALID,0,VALID,100,VALID,35.3711,VALID,18.541,VALID,62,VALID,0.7587,
2007-09-08, 07:52:00,VALID,918.478,VALID,0,VALID,100,VALID,37.8842,VALID,18.5363,VALID,33,VALID,1.64281,
2007-09-08, 07:53:00,VALID,918.511,VALID,0,VALID,100,VALID,33.0617,VALID,18.5525,VALID,33,VALID,0.9109,
2007-09-08, 07:54:00,VALID,918.49,VALID,0,VALID,100,VALID,31.2447,VALID,18.5398,VALID,207,VALID,0.971112,
2007-09-08, 07:55:00,VALID,918.523,VALID,0,VALID,100,VALID,29.7844,VALID,18.5236,VALID,27,VALID,1.31632,
2007-09-08, 07:56:00,VALID,918.551,VALID,0,VALID,100,VALID,33.9617,VALID,18.5495,VALID,36,VALID,1.18477,
2007-09-08, 07:57:00,VALID,918.548,VALID,0,VALID,100,VALID,34.1994,VALID,18.5655,VALID,18,VALID,0.806974,
2007-09-08, 07:58:00,VALID,918.546,VALID,0,VALID,100,VALID,34.8107,VALID,18.546,VALID,67,VALID,0.669744,
2007-09-08, 07:59:00,VALID,918.576,VALID,0,VALID,100,VALID,41.0936,VALID,18.5138,VALID,107,VALID,0.773793,
2007-09-08, 08:00:00,VALID,918.578,VALID,0,VALID,100,VALID,43.3011,VALID,18.4877,VALID,353,VALID,0.985137,
2007-09-08, 08:01:00,VALID,918.596,VALID,0,VALID,100,VALID,43.7087,VALID,18.4907,VALID,8,VALID,1.144,
2007-09-08, 08:02:00,VALID,918.583,VALID,0.2,VALID,100,VALID,54.3217,VALID,18.5266,VALID,43,VALID,0.838796,
2007-09-08, 08:03:00,VALID,918.592,VALID,0,VALID,100,VALID,59.4669,VALID,18.5495,VALID,349,VALID,1.32363,
2007-09-08, 08:04:00,VALID,918.575,VALID,0,VALID,100,VALID,56.8009,VALID,18.4749,VALID,37,VALID,1.06143,
2007-09-08, 08:05:00,VALID,918.601,VALID,0,VALID,100,VALID,54.3896,VALID,18.4782,VALID,34,VALID,2.12386,
2007-09-08, 08:06:00,VALID,918.616,VALID,0,VALID,100,VALID,62.4725,VALID,18.5201,VALID,28,VALID,1.20926,
2007-09-08, 08:07:00,VALID,918.6,VALID,0,VALID,100,VALID,61.7593,VALID,18.553,VALID,35,VALID,1.62153,
2007-09-08, 08:08:00,VALID,918.623,VALID,0,VALID,100,VALID,65.8347,VALID,18.5917,VALID,336,VALID,1.75036,
2007-09-08, 08:09:00,VALID,918.612,VALID,0,VALID,100,VALID,63.6781,VALID,18.5203,VALID,285,VALID,1.31345,
2007-09-08, 08:10:00,VALID,918.63,VALID,0,VALID,100,VALID,65.8177,VALID,18.4874,VALID,32,VALID,1.84557,
2007-09-08, 08:11:00,VALID,918.622,VALID,0,VALID,100,VALID,63.1347,VALID,18.4712,VALID,338,VALID,1.72656,
2007-09-08, 08:12:00,VALID,918.637,VALID,0,VALID,100,VALID,67.9233,VALID,18.4392,VALID,27,VALID,2.06534,
2007-09-08, 08:13:00,VALID,918.685,VALID,0,VALID,100,VALID,68.6026,VALID,18.4585,VALID,13,VALID,2.04634,
2007-09-08, 08:14:00,VALID,918.706,VALID,0,VALID,100,VALID,66.0554,VALID,18.4844,VALID,318,VALID,1.39644,
2007-09-08, 08:15:00,VALID,918.714,VALID,0,VALID,100,VALID,68.0422,VALID,18.5009,VALID,285,VALID,0.870808,
2007-09-08, 08:16:00,VALID,918.73,VALID,0,VALID,100,VALID,67.9912,VALID,18.4515,VALID,35,VALID,1.33685,
2007-09-08, 08:17:00,VALID,918.742,VALID,0,VALID,100,VALID,69.8422,VALID,18.468,VALID,264,VALID,0.568638,
2007-09-08, 08:18:00,VALID,918.767,VALID,0,VALID,100,VALID,79.2495,VALID,18.5203,VALID,40,VALID,1.46003,
2007-09-08, 08:19:00,VALID,918.787,VALID,0,VALID,100,VALID,88.4192,VALID,18.5657,VALID,19,VALID,0.796675,
2007-09-08, 08:20:00,VALID,918.802,VALID,0.2,VALID,100,VALID,92.6814,VALID,18.449,VALID,235,VALID,1.60023,
2007-09-08, 08:21:00,VALID,918.821,VALID,0,VALID,100,VALID,108.677,VALID,18.4135,VALID,61,VALID,1.51023,
2007-09-08, 08:22:00,VALID,918.805,VALID,0,VALID,100,VALID,106.147,VALID,18.5009,VALID,56,VALID,1.25563,
2007-09-08, 08:23:00,VALID,918.837,VALID,0,VALID,100,VALID,109.849,VALID,18.5333,VALID,157,VALID,0.802912,
2007-09-08, 08:24:00,VALID,918.873,VALID,0,VALID,100,VALID,111.479,VALID,18.5301,VALID,180,VALID,0.999306,
2007-09-08, 08:25:00,VALID,918.903,VALID,0,VALID,100,VALID,110.783,VALID,18.5104,VALID,65,VALID,1.08681,
2007-09-08, 08:26:00,VALID,918.951,VALID,0,VALID,100,VALID,121.192,VALID,18.5528,VALID,30,VALID,0.726004,
2007-09-08, 08:27:00,VALID,918.921,VALID,0,VALID,100,VALID,126.524,VALID,18.5984,VALID,319,VALID,1.57138,
2007-09-08, 08:28:00,VALID,918.981,VALID,0,VALID,100,VALID,117.219,VALID,18.5361,VALID,357,VALID,1.32522,
2007-09-08, 08:29:00,VALID,918.979,VALID,0,VALID,100,VALID,121.685,VALID,18.458,VALID,8,VALID,1.76935,
2007-09-08, 08:30:00,VALID,918.98,VALID,0,VALID,100,VALID,112.175,VALID,18.4974,VALID,161,VALID,0.883903,
2007-09-08, 08:31:00,VALID,919.032,VALID,0,VALID,100,VALID,111.377,VALID,18.5331,VALID,194,VALID,0.604048,
2007-09-08, 08:32:00,VALID,919.04,VALID,0,VALID,100,VALID,103.345,VALID,18.5595,VALID,53,VALID,1.50133,
2007-09-08, 08:33:00,VALID,919.077,VALID,0.2,VALID,100,VALID,93.921,VALID,18.5558,VALID,26,VALID,1.17891,
2007-09-08, 08:34:00,VALID,919.099,VALID,0,VALID,100,VALID,104.381,VALID,18.5528,VALID,253,VALID,0.882086,
2007-09-08, 08:35:00,VALID,919.098,VALID,0,VALID,100,VALID,101.698,VALID,18.452,VALID,357,VALID,1.76181,
2007-09-08, 08:36:00,VALID,919.131,VALID,0,VALID,100,VALID,118.373,VALID,18.4946,VALID,33,VALID,1.89353,
2007-09-08, 08:37:00,VALID,919.138,VALID,0,VALID,100,VALID,128.052,VALID,18.543,VALID,358,VALID,0.903963,
2007-09-08, 08:38:00,VALID,919.137,VALID,0,VALID,100,VALID,124.605,VALID,18.5789,VALID,355,VALID,1.17073,
2007-09-08, 08:39:00,VALID,919.184,VALID,0,VALID,100,VALID,123.383,VALID,18.5525,VALID,42,VALID,1.4673,
2007-09-08, 08:40:00,VALID,919.162,VALID,0,VALID,100,VALID,126.847,VALID,18.566,VALID,348,VALID,1.0957,
2007-09-08, 08:41:00,VALID,919.218,VALID,0,VALID,100,VALID,127.186,VALID,18.5725,VALID,47,VALID,0.515625,
2007-09-08, 08:42:00,VALID,919.21,VALID,0,VALID,100,VALID,125.947,VALID,18.6241,VALID,69,VALID,0.806141,
2007-09-08, 08:43:00,VALID,919.22,VALID,0,VALID,100,VALID,126.711,VALID,18.6857,VALID,304,VALID,0.358422,
2007-09-08, 08:44:00,VALID,919.236,VALID,0,VALID,100,VALID,126.303,VALID,18.7149,VALID,337,VALID,0.788707,
2007-09-08, 08:45:00,VALID,919.252,VALID,0,VALID,100,VALID,141.128,VALID,18.7543,VALID,69,VALID,0.653343,
2007-09-08, 08:46:00,VALID,919.245,VALID,0,VALID,100,VALID,142.503,VALID,18.7344,VALID,20,VALID,1.14215,
2007-09-08, 08:47:00,VALID,919.243,VALID,0,VALID,100,VALID,140.194,VALID,18.7249,VALID,27,VALID,1.60278,
2007-09-08, 08:48:00,VALID,919.228,VALID,0,VALID,100,VALID,142.503,VALID,18.7636,VALID,35,VALID,2.3125,
2007-09-08, 08:49:00,VALID,919.242,VALID,0,VALID,100,VALID,140.041,VALID,18.809,VALID,40,VALID,2.01439,
2007-09-08, 08:50:00,VALID,919.247,VALID,0,VALID,100,VALID,138.105,VALID,18.7474,VALID,39,VALID,2.21361,
2007-09-08, 08:51:00,VALID,919.242,VALID,0,VALID,100,VALID,138.564,VALID,18.7379,VALID,38,VALID,2.08054,
2007-09-08, 08:52:00,VALID,919.238,VALID,0,VALID,100,VALID,141.348,VALID,18.7376,VALID,36,VALID,2.33994,
2007-09-08, 08:53:00,VALID,919.233,VALID,0,VALID,100,VALID,149.278,VALID,18.7057,VALID,35,VALID,2.53234,
2007-09-08, 08:54:00,VALID,919.224,VALID,0,VALID,100,VALID,162.795,VALID,18.7277,VALID,37,VALID,2.78711,
2007-09-08, 08:55:00,VALID,919.255,VALID,0.2,VALID,100,VALID,169.214,VALID,18.7666,VALID,40,VALID,3.07515,
2007-09-08, 08:56:00,VALID,919.25,VALID,0,VALID,100,VALID,174.189,VALID,18.7733,VALID,31,VALID,2.82388,
2007-09-08, 08:57:00,VALID,919.261,VALID,0,VALID,100,VALID,175.038,VALID,18.7022,VALID,26,VALID,1.94327,
2007-09-08, 08:58:00,VALID,919.248,VALID,0,VALID,100,VALID,178.893,VALID,18.7314,VALID,30,VALID,1.81045,
2007-09-08, 08:59:00,VALID,919.257,VALID,0,VALID,100,VALID,177.823,VALID,18.6955,VALID,26,VALID,1.84965,
2007-09-08, 09:00:00,VALID,919.269,VALID,0,VALID,100,VALID,171.421,VALID,18.7249,VALID,27,VALID,1.39787,
2007-09-08, 09:01:00,VALID,919.268,VALID,0,VALID,100,VALID,171.982,VALID,18.8187,VALID,19,VALID,2.04531,
2007-09-08, 09:02:00,VALID,919.275,VALID,0,VALID,100,VALID,164.782,VALID,18.7538,VALID,24,VALID,2.52734,
2007-09-08, 09:03:00,VALID,919.31,VALID,0,VALID,100,VALID,158.397,VALID,18.7863,VALID,357,VALID,1.56559,
2007-09-08, 09:04:00,VALID,919.34,VALID,0,VALID,100,VALID,164.68,VALID,18.7863,VALID,15,VALID,1.62035,
2007-09-08, 09:05:00,VALID,919.368,VALID,0,VALID,100,VALID,169.876,VALID,18.7538,VALID,29,VALID,1.63227,
2007-09-08, 09:06:00,VALID,919.358,VALID,0,VALID,100,VALID,172.152,VALID,18.8382,VALID,18,VALID,1.39444,
2007-09-08, 09:07:00,VALID,919.38,VALID,0,VALID,100,VALID,171.32,VALID,18.8576,VALID,3,VALID,1.5224,
2007-09-08, 09:08:00,VALID,919.407,VALID,0,VALID,100,VALID,167.431,VALID,18.8384,VALID,351,VALID,1.30134,
2007-09-08, 09:09:00,VALID,919.422,VALID,0,VALID,100,VALID,162.065,VALID,18.8155,VALID,43,VALID,1.4388,
2007-09-08, 09:10:00,VALID,919.428,VALID,0,VALID,100,VALID,161.539,VALID,18.8901,VALID,31,VALID,1.71403,
2007-09-08, 09:11:00,VALID,919.443,VALID,0,VALID,100,VALID,170.25,VALID,18.9874,VALID,12,VALID,1.10472,
2007-09-08, 09:12:00,VALID,919.445,VALID,0,VALID,100,VALID,176.804,VALID,18.9193,VALID,359,VALID,0.993164,
2007-09-08, 09:13:00,VALID,919.448,VALID,0,VALID,100,VALID,193.802,VALID,18.9095,VALID,38,VALID,1.2846,
2007-09-08, 09:14:00,VALID,919.435,VALID,0,VALID,100,VALID,210.46,VALID,19.0168,VALID,46,VALID,1.06548,
2007-09-08, 09:15:00,VALID,919.433,VALID,0,VALID,100,VALID,219.273,VALID,19.0977,VALID,39,VALID,0.936228,
2007-09-08, 09:16:00,VALID,919.455,VALID,0,VALID,100,VALID,220.785,VALID,19.1042,VALID,329,VALID,0.90734,
2007-09-08, 09:17:00,VALID,919.442,VALID,0,VALID,100,VALID,228.307,VALID,19.0592,VALID,15,VALID,0.802591,
2007-09-08, 09:18:00,VALID,919.432,VALID,0,VALID,100,VALID,240.381,VALID,19.0402,VALID,8,VALID,1.40164,
2007-09-08, 09:19:00,VALID,919.399,VALID,0,VALID,100,VALID,250.026,VALID,18.9457,VALID,5,VALID,2.1755,
2007-09-08, 09:20:00,VALID,919.394,VALID,0,VALID,100,VALID,251.079,VALID,18.8616,VALID,34,VALID,2.36998,
2007-09-08, 09:21:00,VALID,919.395,VALID,0,VALID,100,VALID,245.271,VALID,18.8683,VALID,17,VALID,2.2218,
2007-09-08, 09:22:00,VALID,919.413,VALID,0,VALID,100,VALID,240.364,VALID,18.929,VALID,28,VALID,1.84747,
2007-09-08, 09:23:00,VALID,919.423,VALID,0,VALID,100,VALID,256.835,VALID,19.1403,VALID,34,VALID,1.39382,
2007-09-08, 09:24:00,VALID,919.451,VALID,0,VALID,100,VALID,264.069,VALID,19.3157,VALID,22,VALID,1.1061,
2007-09-08, 09:25:00,VALID,919.451,VALID,0,VALID,100,VALID,264.612,VALID,19.1368,VALID,20,VALID,1.32927,
2007-09-08, 09:26:00,VALID,919.463,VALID,0,VALID,100,VALID,253.762,VALID,19.1693,VALID,6,VALID,0.986285,
2007-09-08, 09:27:00,VALID,919.453,VALID,0,VALID,100,VALID,251.435,VALID,19.1728,VALID,30,VALID,2.38635,
2007-09-08, 09:28:00,VALID,919.469,VALID,0,VALID,100,VALID,251.18,VALID,19.0981,VALID,21,VALID,1.60322,
2007-09-08, 09:29:00,VALID,919.451,VALID,0,VALID,100,VALID,221.6,VALID,18.9946,VALID,7,VALID,1.76653,
2007-09-08, 09:30:00,VALID,919.461,VALID,0,VALID,100,VALID,214.145,VALID,19.0395,VALID,28,VALID,2.80469,
2007-09-08, 09:31:00,VALID,919.491,VALID,0,VALID,100,VALID,238.462,VALID,19.2047,VALID,36,VALID,2.30736,
2007-09-08, 09:32:00,VALID,919.505,VALID,0,VALID,100,VALID,263.627,VALID,19.2761,VALID,39,VALID,1.80984,
2007-09-08, 09:33:00,VALID,919.495,VALID,0,VALID,100,VALID,276.889,VALID,19.4213,VALID,34,VALID,1.28764,
2007-09-08, 09:34:00,VALID,919.51,VALID,0,VALID,100,VALID,279.98,VALID,19.3085,VALID,13,VALID,2.00591,
2007-09-08, 09:35:00,VALID,919.522,VALID,0,VALID,100,VALID,281.338,VALID,19.1496,VALID,20,VALID,2.32156,
2007-09-08, 09:36:00,VALID,919.517,VALID,0,VALID,100,VALID,280.506,VALID,19.0917,VALID,20,VALID,0.986662,
2007-09-08, 09:37:00,VALID,919.516,VALID,0,VALID,100,VALID,272.661,VALID,19.1475,VALID,15,VALID,1.31286,
2007-09-08, 09:38:00,VALID,919.513,VALID,0,VALID,100,VALID,265.767,VALID,19.053,VALID,28,VALID,1.72485,
2007-09-08, 09:39:00,VALID,919.527,VALID,0,VALID,100,VALID,258.89,VALID,19.1535,VALID,35,VALID,1.89753,
2007-09-08, 09:40:00,VALID,919.53,VALID,0,VALID,100,VALID,251.809,VALID,19.3544,VALID,34,VALID,2.36843,
2007-09-08, 09:41:00,VALID,919.552,VALID,0,VALID,100,VALID,249.041,VALID,19.3901,VALID,331,VALID,0.863839,
2007-09-08, 09:42:00,VALID,919.554,VALID,0,VALID,100,VALID,247.597,VALID,19.293,VALID,32,VALID,1.81726,
2007-09-08, 09:43:00,VALID,919.549,VALID,0,VALID,100,VALID,232.671,VALID,19.2933,VALID,34,VALID,1.91326,
2007-09-08, 09:44:00,VALID,919.555,VALID,0,VALID,100,VALID,222.585,VALID,19.4947,VALID,30,VALID,1.45585,
2007-09-08, 09:45:00,VALID,919.578,VALID,0,VALID,100,VALID,237.647,VALID,19.6147,VALID,31,VALID,1.81504,
2007-09-08, 09:46:00,VALID,919.575,VALID,0,VALID,100,VALID,245.288,VALID,19.7213,VALID,21,VALID,1.52708,
2007-09-08, 09:47:00,VALID,919.551,VALID,0,VALID,100,VALID,242.996,VALID,19.5982,VALID,25,VALID,1.51544,
2007-09-08, 09:48:00,VALID,919.539,VALID,0,VALID,100,VALID,236.764,VALID,19.4397,VALID,18,VALID,1.49645,
2007-09-08, 09:49:00,VALID,919.542,VALID,0,VALID,100,VALID,237.562,VALID,19.4981,VALID,27,VALID,1.8367,
2007-09-08, 09:50:00,VALID,919.553,VALID,0,VALID,100,VALID,239.684,VALID,19.6729,VALID,38,VALID,1.14615,
2007-09-08, 09:51:00,VALID,919.561,VALID,0,VALID,100,VALID,270.607,VALID,19.7662,VALID,38,VALID,0.843378,
2007-09-08, 09:52:00,VALID,919.548,VALID,0,VALID,100,VALID,292.699,VALID,19.9274,VALID,354,VALID,0.606136,
2007-09-08, 09:53:00,VALID,919.521,VALID,0,VALID,100,VALID,288.436,VALID,19.759,VALID,24,VALID,1.89172,
2007-09-08, 09:54:00,VALID,919.524,VALID,0,VALID,100,VALID,276.091,VALID,19.4862,VALID,11,VALID,1.894,
2007-09-08, 09:55:00,VALID,919.525,VALID,0,VALID,100,VALID,273.595,VALID,19.5705,VALID,32,VALID,2.17151,
2007-09-08, 09:56:00,VALID,919.517,VALID,0,VALID,100,VALID,248.718,VALID,19.6654,VALID,10,VALID,1.54725,
2007-09-08, 09:57:00,VALID,919.511,VALID,0,VALID,100,VALID,224.792,VALID,19.6521,VALID,33,VALID,1.84585,
2007-09-08, 09:58:00,VALID,919.514,VALID,0,VALID,100,VALID,207.76,VALID,19.7168,VALID,325,VALID,0.62686,
2007-09-08, 09:59:00,VALID,919.523,VALID,0,VALID,100,VALID,208.508,VALID,19.7367,VALID,24,VALID,1.16146,
2007-09-08, 10:00:00,VALID,919.528,VALID,0,VALID,100,VALID,227.034,VALID,19.8338,VALID,8,VALID,0.546705,
2007-09-08, 10:01:00,VALID,919.532,VALID,0,VALID,100,VALID,237.935,VALID,19.8109,VALID,26,VALID,1.46112,
2007-09-08, 10:02:00,VALID,919.534,VALID,0,VALID,100,VALID,239.939,VALID,19.9214,VALID,34,VALID,0.499826,
2007-09-08, 10:03:00,VALID,919.537,VALID,0,VALID,100,VALID,247.02,VALID,20.0512,VALID,28,VALID,0.587462,
2007-09-08, 10:04:00,VALID,919.544,VALID,0,VALID,100,VALID,266.124,VALID,20.0709,VALID,25,VALID,0.627287,
2007-09-08, 10:05:00,VALID,919.529,VALID,0,VALID,100,VALID,255.612,VALID,20.0772,VALID,29,VALID,0.569754,
2007-09-08, 10:06:00,VALID,919.541,VALID,0,VALID,100,VALID,248.786,VALID,20.1296,VALID,39,VALID,1.06729,
2007-09-08, 10:07:00,VALID,919.541,VALID,0,VALID,100,VALID,249.007,VALID,20.1179,VALID,39,VALID,1.66611,
2007-09-08, 10:08:00,VALID,919.527,VALID,0,VALID,100,VALID,230.09,VALID,20.1698,VALID,341,VALID,0.62793,
2007-09-08, 10:09:00,VALID,919.523,VALID,0,VALID,100,VALID,200.866,VALID,19.9749,VALID,334,VALID,0.877544,
2007-09-08, 10:10:00,VALID,919.536,VALID,0,VALID,100,VALID,174.325,VALID,19.7305,VALID,22,VALID,1.127,
2007-09-08, 10:11:00,VALID,919.522,VALID,0,VALID,100,VALID,164.799,VALID,19.6726,VALID,9,VALID,1.56328,
2007-09-08, 10:12:00,VALID,919.521,VALID,0,VALID,100,VALID,165.563,VALID,19.5887,VALID,2,VALID,1.57358,
2007-09-08, 10:13:00,VALID,919.516,VALID,0,VALID,100,VALID,168.518,VALID,19.5269,VALID,26,VALID,1.4206,
2007-09-08, 10:14:00,VALID,919.527,VALID,0,VALID,100,VALID,189.557,VALID,19.6374,VALID,357,VALID,0.522294,
2007-09-08, 10:15:00,VALID,919.533,VALID,0,VALID,100,VALID,217.711,VALID,19.7118,VALID,311,VALID,0.316016,
2007-09-08, 10:16:00,VALID,919.517,VALID,0,VALID,100,VALID,241.807,VALID,19.7804,VALID,31,VALID,1.16761,
2007-09-08, 10:17:00,VALID,919.509,VALID,0,VALID,100,VALID,256.275,VALID,19.8745,VALID,36,VALID,1.35365,
2007-09-08, 10:18:00,VALID,919.512,VALID,0,VALID,100,VALID,239.583,VALID,19.9813,VALID,47,VALID,1.1228,
2007-09-08, 10:19:00,VALID,919.484,VALID,0,VALID,100,VALID,206.351,VALID,19.9551,VALID,7,VALID,1.41699,
2007-09-08, 10:20:00,VALID,919.472,VALID,0,VALID,100,VALID,204.585,VALID,19.855,VALID,34,VALID,1.83281,
2007-09-08, 10:21:00,VALID,919.482,VALID,0,VALID,100,VALID,253.303,VALID,19.88,VALID,31,VALID,1.8291,
2007-09-08, 10:22:00,VALID,919.483,VALID,0,VALID,100,VALID,296.621,VALID,19.9546,VALID,34,VALID,0.899709,
2007-09-08, 10:23:00,VALID,919.47,VALID,0,VALID,100,VALID,287.791,VALID,20.0725,VALID,33,VALID,1.20573,
2007-09-08, 10:24:00,VALID,919.464,VALID,0,VALID,100,VALID,270.488,VALID,20.0952,VALID,36,VALID,1.43051,
2007-09-08, 10:25:00,VALID,919.444,VALID,0,VALID,100,VALID,250.96,VALID,19.9751,VALID,36,VALID,1.45658,
2007-09-08, 10:26:00,VALID,919.454,VALID,0,VALID,100,VALID,230.481,VALID,19.9584,VALID,349,VALID,1.05115,
2007-09-08, 10:27:00,VALID,919.457,VALID,0,VALID,100,VALID,203.634,VALID,19.8483,VALID,343,VALID,0.820685,
2007-09-08, 10:28:00,VALID,919.434,VALID,0,VALID,100,VALID,173.425,VALID,19.8778,VALID,28,VALID,1.40803,
2007-09-08, 10:29:00,VALID,919.443,VALID,0,VALID,100,VALID,165.75,VALID,19.9124,VALID,7,VALID,0.934411,
2007-09-08, 10:30:00,VALID,919.419,VALID,0,VALID,100,VALID,167.72,VALID,19.7832,VALID,3,VALID,0.618331,
2007-09-08, 10:31:00,VALID,919.422,VALID,0,VALID,100,VALID,175.242,VALID,19.8321,VALID,39,VALID,0.772636,
2007-09-08, 10:32:00,VALID,919.437,VALID,0,VALID,100,VALID,187.706,VALID,19.9324,VALID,1,VALID,0.532227,
2007-09-08, 10:33:00,VALID,919.421,VALID,0,VALID,100,VALID,177.704,VALID,19.8648,VALID,13,VALID,0.816211,
2007-09-08, 10:34:00,VALID,919.411,VALID,0,VALID,100,VALID,164.256,VALID,19.8453,VALID,326,VALID,0.701308,
2007-09-08, 10:35:00,VALID,919.409,VALID,0,VALID,100,VALID,163.661,VALID,19.8064,VALID,39,VALID,1.16806,
2007-09-08, 10:36:00,VALID,919.399,VALID,0,VALID,100,VALID,174.308,VALID,19.9591,VALID,36,VALID,0.719658,
2007-09-08, 10:37:00,VALID,919.385,VALID,0,VALID,100,VALID,184.208,VALID,20.0203,VALID,290,VALID,0.724746,
2007-09-08, 10:38:00,VALID,919.352,VALID,0,VALID,100,VALID,187.468,VALID,19.8743,VALID,1,VALID,0.792039,
2007-09-08, 10:39:00,VALID,919.348,VALID,0,VALID,100,VALID,185.889,VALID,19.8164,VALID,359,VALID,1.49149,
2007-09-08, 10:40:00,VALID,919.32,VALID,0,VALID,100,VALID,192.885,VALID,19.7966,VALID,32,VALID,1.08098,
2007-09-08, 10:41:00,VALID,919.287,VALID,0,VALID,100,VALID,186.534,VALID,19.8645,VALID,10,VALID,1.30344,
2007-09-08, 10:42:00,VALID,919.275,VALID,0,VALID,100,VALID,173.12,VALID,19.7837,VALID,32,VALID,1.86559,
2007-09-08, 10:43:00,VALID,919.279,VALID,0,VALID,100,VALID,177.993,VALID,19.8548,VALID,29,VALID,1.77363,
2007-09-08, 10:44:00,VALID,919.253,VALID,0,VALID,100,VALID,175.191,VALID,19.9686,VALID,35,VALID,1.5118,
2007-09-08, 10:45:00,VALID,919.232,VALID,0,VALID,100,VALID,159.144,VALID,20.0208,VALID,37,VALID,1.40644,